Location: Iesi
(43.5167°N, 13.2333°E)
Time: 16:59:38
(UTC+00:00)

Nadezhda 4 Rocket - Pass Details

Date: 08 August 2020
Orbit: 949 x 993 km, 82.9° (Epoch: 22 September)

Event Time Altitude Azimuth Distance (km) Brightness Sun altitude
Rises 23:29:15 0° 353° (N) 3,708 8.2 -30.6°
Reaches altitude 10° 23:31:48 10° 356° (N) 2,751 7.2 -30.5°
Maximum altitude 23:38:06 70° 81° (E) 1,035 4.0 -30.4°
Enters shadow 23:38:07 70° 82° (E) 1,035 4.0 -30.4°
